Concordia, KS

5:25 AM CDT on April 24, 2017 (GMT -0500)
Blosser Municipal

Weather History for KCNK - October, 2013

Change the Weather History Date:

Tuesday, October 29, 2013

  Actual Average Record
Temperature  
Mean Temperature 55 °F 50 °F  
Max Temperature 60 °F 62 °F 87 °F (1937)
Min Temperature 49 °F 39 °F 15 °F (1913)
Degree Days  
Heating Degree Days 10 15  
Month to date heating degree days 290 288  
Since 1 July heating degree days 311 361  
Cooling Degree Days 0 0  
Month to date cooling degree days 32 20  
Year to date cooling degree days 1359 1346  
Growing Degree Days 5 (Base 50)    
Moisture  
Dew Point 54 °F    
Average Humidity 97    
Maximum Humidity 100    
Minimum Humidity 93    
Precipitation  
Precipitation 0.02 in 0.05 in 1.15 in (1896)
Month to date precipitation 0.80 1.83  
Year to date precipitation 25.50 25.84  
Snow  
Snow 0.00 in 0.10 in T in (1993)
Month to date snowfall 0.0 0.2  
Year to date snowfall 20.3 13.9  
Since 1 July snowfall 0.0 0.2  
Snow Depth 0.00 in    
Sea Level Pressure  
Sea Level Pressure 29.96 in    
Wind  
Wind Speed 8 mph (East)    
Max Wind Speed 14 mph    
Max Gust Speed 20 mph    
Visibility 2 miles    
Events Fog , Rain    
T = Trace of Precipitation, MM = Missing Value Source: NWS Daily Summary

Daily Weather History Graph

Daily Weather History Graph

Search for Another Location

Airport or City:

Trip Planner

Search our weather history database for the weather conditions in past years. The results will help you decide how hot, cold, wet, or windy it might be!

Date:

Astronomy

Oct. 29, 2013 Rise Set
Actual Time 7:55 AM CDT 6:32 PM CDT
Civil Twilight 7:28 AM CDT 6:59 PM CDT
Nautical Twilight 6:56 AM CDT 7:31 PM CDT
Astronomical Twilight 6:25 AM CDT 8:02 PM CDT
Moon 2:48 AM CDT (10/29) 3:45 PM CDT (10/29)
Length of Visible Light 11h 31m
Length of Day
10h 36m
Waning Crescent, 25% of the Moon is Illuminated
Oct 29
Waning Crescent
Nov 3
New
Nov 9
First Quarter
Nov 17
Full
Nov 25
Last Quarter

Hourly Weather History & Observations

Time (CDT) Temp. Dew Point Humidity Pressure Visibility Wind Dir Wind Speed Gust Speed Precip Events Conditions
12:10 AM 52.0 °F 51.1 °F 97% 30.03 in 5.0 mi East 11.5 mph - N/A   Overcast
12:55 AM 52.0 °F 51.1 °F 97% 30.03 in 4.0 mi East 12.7 mph - N/A   Overcast
1:11 AM 52.0 °F 51.1 °F 97% 30.02 in 4.0 mi East 13.8 mph - 0.01 in Rain Light Rain
1:55 AM 52.0 °F 51.1 °F 97% 30.01 in 4.0 mi East 11.5 mph - 0.02 in   Overcast
2:47 AM 52.0 °F 51.1 °F 97% 30.00 in 3.0 mi East 9.2 mph - 0.00 in   Overcast
2:55 AM 52.0 °F 52.0 °F 100% 30.00 in 3.0 mi East 9.2 mph - 0.00 in   Overcast
3:29 AM 52.0 °F 52.0 °F 100% 29.99 in 3.0 mi East 9.2 mph - N/A   Overcast
3:42 AM 52.0 °F 52.0 °F 100% 29.99 in 2.5 mi East 8.1 mph - N/A   Overcast
3:55 AM 53.1 °F 52.0 °F 96% 29.97 in 3.0 mi East 10.4 mph - N/A   Overcast
4:39 AM 53.1 °F 52.0 °F 96% 29.99 in 3.0 mi East 6.9 mph - N/A   Overcast
4:55 AM 53.1 °F 52.0 °F 96% 29.98 in 3.0 mi East 9.2 mph - N/A   Overcast
5:47 AM 53.1 °F 52.0 °F 96% 30.00 in 2.0 mi East 10.4 mph - N/A   Overcast
5:55 AM 53.1 °F 52.0 °F 96% 29.99 in 2.0 mi East 9.2 mph - N/A   Overcast
6:06 AM 53.1 °F 52.0 °F 96% 30.00 in 2.0 mi East 9.2 mph - N/A   Overcast
6:12 AM 53.1 °F 53.1 °F 100% 30.00 in 1.5 mi East 8.1 mph - N/A   Overcast
6:39 AM 53.1 °F 53.1 °F 100% 30.00 in 1.8 mi East 8.1 mph - N/A   Overcast
6:48 AM 53.1 °F 53.1 °F 100% 29.99 in 1.5 mi East 9.2 mph - N/A   Overcast
6:55 AM 53.1 °F 53.1 °F 100% 29.98 in 1.2 mi East 8.1 mph - N/A   Overcast
7:38 AM 53.1 °F 53.1 °F 100% 29.99 in 1.5 mi East 8.1 mph - N/A   Overcast
7:48 AM 53.1 °F 53.1 °F 100% 29.98 in 1.2 mi East 10.4 mph - N/A   Overcast
7:55 AM 53.1 °F 53.1 °F 100% 29.97 in 1.2 mi East 10.4 mph - N/A   Overcast
8:02 AM 53.1 °F 53.1 °F 100% 29.98 in 1.5 mi East 11.5 mph - N/A   Overcast
8:20 AM 53.1 °F 53.1 °F 100% 29.98 in 1.0 mi ESE 9.2 mph - N/A   Overcast
8:35 AM 53.1 °F 53.1 °F 100% 29.98 in 1.8 mi ESE 9.2 mph - N/A   Overcast
8:43 AM 54.0 °F 53.1 °F 97% 29.98 in 2.5 mi ESE 9.2 mph - N/A   Overcast
8:53 AM 53.6 °F 53.6 °F 100% 29.99 in 3.0 mi ESE 9.2 mph - N/A   Overcast
8:55 AM 54.0 °F 53.1 °F 97% 29.98 in 3.0 mi ESE 9.2 mph - N/A   Overcast
9:10 AM 54.0 °F 54.0 °F 100% 29.99 in 4.0 mi ESE 11.5 mph - N/A   Overcast
9:52 AM 55.4 °F 53.6 °F 94% 29.99 in 2.5 mi ESE 10.4 mph - N/A   Overcast
9:55 AM 54.0 °F 54.0 °F 100% 29.98 in 2.0 mi ESE 10.4 mph - N/A   Overcast
10:05 AM 54.0 °F 54.0 °F 100% 29.99 in 1.8 mi ESE 12.7 mph 19.6 mph N/A   Overcast
10:12 AM 54.0 °F 54.0 °F 100% 30.00 in 1.2 mi ESE 11.5 mph - N/A   Overcast
10:55 AM 55.0 °F 55.0 °F 100% 29.98 in 1.0 mi ESE 11.5 mph - N/A   Overcast
11:19 AM 55.0 °F 55.0 °F 100% 29.98 in 1.8 mi ESE 8.1 mph - N/A   Overcast
11:35 AM 55.0 °F 55.0 °F 100% 29.97 in 2.5 mi ESE 9.2 mph - N/A   Overcast
11:55 AM 55.9 °F 55.9 °F 100% 29.96 in 2.5 mi ESE 10.4 mph - N/A   Overcast
12:07 PM 55.9 °F 55.9 °F 100% 29.96 in 3.0 mi ESE 10.4 mph - N/A   Overcast
12:55 PM 55.9 °F 55.9 °F 100% 29.94 in 4.0 mi East 9.2 mph - N/A   Overcast
1:17 PM 55.9 °F 55.9 °F 100% 29.93 in 2.5 mi ESE 10.4 mph - N/A   Overcast
1:25 PM 57.0 °F 57.0 °F 100% 29.93 in 1.5 mi ESE 9.2 mph - N/A   Overcast
1:32 PM 55.9 °F 55.9 °F 100% 29.92 in 1.0 mi ESE 10.4 mph - N/A   Overcast
1:39 PM 55.9 °F 55.9 °F 100% 29.92 in 0.8 mi East 9.2 mph - N/A   Overcast
1:55 PM 57.0 °F 57.0 °F 100% 29.91 in 0.5 mi East 8.1 mph - N/A Fog Fog
2:55 PM 57.0 °F 57.0 °F 100% 29.89 in 0.5 mi ESE 6.9 mph - N/A Fog Fog
3:50 PM 57.2 °F 57.2 °F 100% 29.88 in 1.0 mi ESE 6.9 mph - N/A   Overcast
3:55 PM 57.9 °F 57.9 °F 100% 29.88 in 1.0 mi ESE 5.8 mph - N/A   Overcast
4:33 PM 59.0 °F 59.0 °F 100% 29.88 in 0.8 mi ESE 4.6 mph - N/A   Overcast
4:55 PM 59.0 °F 59.0 °F 100% 29.88 in 0.5 mi ESE 5.8 mph - N/A Fog Fog
5:55 PM 60.1 °F 60.1 °F 100% 29.87 in 0.5 mi Calm Calm - N/A Fog Fog
6:22 PM 59.0 °F 59.0 °F 100% 29.89 in 0.2 mi ENE 3.5 mph - N/A Fog Fog
6:31 PM 59.0 °F 59.0 °F 100% 29.89 in 0.2 mi Calm Calm - N/A Fog Fog
6:42 PM 59.0 °F 59.0 °F 100% 29.89 in 0.2 mi Calm Calm - N/A Fog Fog
6:55 PM 59.0 °F 59.0 °F 100% 29.89 in 0.2 mi Calm Calm - N/A Fog Fog
7:29 PM 57.9 °F 57.9 °F 100% 29.90 in 0.2 mi West 4.6 mph - N/A Fog Fog
7:36 PM 57.9 °F 57.9 °F 100% 29.91 in 1.5 mi West 5.8 mph - N/A   Overcast
7:38 PM 57.9 °F 57.9 °F 100% 29.91 in 3.0 mi West 5.8 mph - N/A   Overcast
7:43 PM 57.9 °F 57.9 °F 100% 29.91 in 2.5 mi West 6.9 mph - N/A   Overcast
7:46 PM 57.9 °F 57.9 °F 100% 29.91 in 1.2 mi West 6.9 mph - N/A   Overcast
7:55 PM 57.9 °F 57.9 °F 100% 29.91 in 0.5 mi WNW 8.1 mph - N/A Fog Fog
8:55 PM 55.9 °F 55.9 °F 100% 29.94 in 0.8 mi WNW 6.9 mph - N/A   Mist
9:03 PM 55.0 °F 55.0 °F 100% 29.95 in 1.0 mi WNW 8.1 mph - N/A   Overcast
9:15 PM 54.0 °F 54.0 °F 100% 29.95 in 0.8 mi WNW 6.9 mph - N/A   Overcast
9:25 PM 54.0 °F 54.0 °F 100% 29.95 in 1.0 mi NW 10.4 mph - N/A   Overcast
9:32 PM 54.0 °F 54.0 °F 100% 29.95 in 0.8 mi WNW 9.2 mph - N/A   Overcast
9:55 PM 53.1 °F 53.1 °F 100% 29.96 in 0.8 mi WNW 8.1 mph - N/A   Overcast
10:22 PM 52.0 °F 52.0 °F 100% 29.97 in 1.0 mi WNW 9.2 mph - N/A   Overcast
10:30 PM 52.0 °F 52.0 °F 100% 29.97 in 0.8 mi WNW 8.1 mph - N/A   Overcast
10:42 PM 51.1 °F 51.1 °F 100% 29.98 in 1.0 mi WNW 9.2 mph - N/A   Overcast
10:55 PM 51.1 °F 51.1 °F 100% 29.98 in 1.2 mi WNW 11.5 mph - N/A   Overcast
11:13 PM 51.1 °F 51.1 °F 100% 29.99 in 1.8 mi NW 8.1 mph - N/A   Overcast
11:21 PM 50.0 °F 50.0 °F 100% 29.99 in 2.5 mi NW 10.4 mph - N/A   Overcast
11:46 PM 50.0 °F 50.0 °F 100% 29.99 in 3.0 mi NW 10.4 mph - N/A   Overcast
11:55 PM 50.0 °F 50.0 °F 100% 29.99 in 4.0 mi NW 9.2 mph - N/A   Overcast